Location: Alafon
(8.4500°N, 4.2333°E)
Time: 14:35:40
(UTC+00:00)

Vanguard 1 Rocket - Pass Details

Date: 29 July 2021
Orbit: 650 x 4226 km, 34.3° (Epoch: 27 September)

Event Time Altitude Azimuth Distance (km) Brightness Sun altitude
Exits shadow 02:45:19 - 182° (S) 6,559 11.4 -38.9°
Reaches altitude 10° 02:46:07 10° 180° (S) 6,555 11.5 -38.7°
Maximum altitude 02:56:22 14° 152° (SSE) 6,773 11.7 -36.5°
Drops below altitude 10° 03:07:44 10° 125° (SE) 7,426 12.2 -34.1°
Sets 03:19:08 0° 104° (ESE) 8,322 12.9 -31.6°
